Location: Sungai Kamana Besar
(2.6333°N, 113.4333°E)
Time: 05:55:59
(UTC+00:00)

BREEZE-M TANK - Pass Details

Date: 29 May 2022
Orbit: 559 x 24726 km, 45.3° (Epoch: 26 June)

Event Time Altitude Azimuth Distance (km) Brightness Sun altitude
Exits shadow 21:02:52 13° 208° (SSW) 3,457 5.9 -17.7°
Maximum altitude 21:08:47 41° 141° (SE) 1,107 3.9 -16.3°
Drops below altitude 10° 21:12:06 10° 67° (ENE) 1,881 6.4 -15.6°
Sets 21:13:53 0° 58° (ENE) 2,725 7.7 -15.2°
